This is the latest recevied weather packets stored in our database for station/object N3SBK. If no packets are shown the sender has not sent any weather packets the latest 10 day(s).
| Time | Temp. | Humidity | Pressure | Rain* | Wind** | Luminosity | Snow |
|---|---|---|---|---|---|---|---|
| 1787920492 | 16.11° C | 99% | 1010.8 hPa | 0 mm | - | 31 W/m² | - |
| 1787920189 | 16.11° C | 99% | 1010.6 hPa | 0 mm | - | 44 W/m² | - |
| 1787919885 | 16.11° C | 99% | 1010.7 hPa | 0 mm | - | 49 W/m² | - |
| 1787919583 | 15.56° C | 98% | 1010.8 hPa | 0 mm | - | 43 W/m² | - |
| 1787919279 | 15.56° C | 98% | 1010.6 hPa | 0 mm | - | 32 W/m² | - |
| 1787918975 | 15.56° C | 98% | 1010.5 hPa | 0 mm | - | 25 W/m² | - |
| 1787918675 | 15.56° C | 98% | 1010.5 hPa | 0 mm | - | 23 W/m² | - |
| 1787918373 | 15.56° C | 98% | 1010.4 hPa | 0 mm | - | 24 W/m² | - |
| 1787918068 | 15.56° C | 99% | 1010.1 hPa | 0 mm | - | 26 W/m² | - |
| 1787917763 | 15.56° C | 99% | 1010.3 hPa | 0 mm | - | 23 W/m² | - |
| 1787917460 | 15.56° C | 98% | 1010 hPa | 0 mm | - | 21 W/m² | - |
| 1787917155 | 15.56° C | 98% | 1010 hPa | 0 mm | - | 18 W/m² | - |
| 1787916854 | 15.56° C | 99% | 1010.1 hPa | 0 mm | - | 17 W/m² | - |
| 1787916554 | 15.56° C | 98% | 1010 hPa | 0 mm | - | 15 W/m² | - |
| 1787916249 | 15.56° C | 98% | 1009.9 hPa | 0 mm | - | 15 W/m² | - |
| 1787915944 | 15.56° C | 98% | 1009.9 hPa | 0 mm | - | 14 W/m² | - |
| 1787915640 | 15.56° C | 98% | 1009.7 hPa | 0 mm | - | 10 W/m² | - |
| 1787915340 | 15.56° C | 98% | 1009.6 hPa | 0 mm | - | 9 W/m² | - |
| 1787915035 | 15.56° C | 98% | 1009.6 hPa | 0 mm | - | 7 W/m² | - |
| 1787914733 | 15.56° C | 98% | 1009.3 hPa | 0 mm | - | 6 W/m² | - |
| 1787914429 | 15.56° C | 98% | 1009.4 hPa | 0 mm | - | 4 W/m² | - |
| 1787914129 | 15.56° C | 98% | 1009.4 hPa | 0 mm | - | 3 W/m² | - |
| 1787913828 | 15.56° C | 98% | 1009.5 hPa | 0 mm | - | 2 W/m² | - |
| 1787913523 | 15.56° C | 98% | 1009.2 hPa | 0 mm | - | 1 W/m² | - |
| 1787913222 | 15.56° C | 98% | 1009.2 hPa | 0 mm | - | 0 W/m² | - |
* Rain latest hour (hover to see other rain measurements)
** Current wind speed in m/s (hover to see current wind gust speed)